Alexandria Esle, LA

3:21 AM CDT on May 23, 2018 (GMT -0500)
Alexandria Esler Regional

Weather History for KESF - February, 2012

Change the Weather History Date:

Saturday, February 11, 2012

  Actual Average Record
Temperature  
Mean Temperature 39 °F -  
Max Temperature 46 °F 65 °F 82 °F (2017)
Min Temperature 30 °F 40 °F 19 °F (1973)
Degree Days  
Heating Degree Days 26    
Moisture  
Dew Point 25 °F    
Average Humidity 57    
Maximum Humidity 89    
Minimum Humidity 26    
Precipitation  
Precipitation 0.01 in - - ()
Sea Level Pressure  
Sea Level Pressure 30.40 in    
Wind  
Wind Speed 7 mph (NNE)    
Max Wind Speed 13 mph    
Max Gust Speed 23 mph    
Visibility 10 miles    
Events      
Averages and records for this station are not official NWS values.
T = Trace of Precipitation, MM = Missing Value Source: NWS Daily Summary

Daily Weather History Graph

Daily Weather History Graph

Search for Another Location

Airport or City:

Astronomy

Feb. 11, 2012 Rise Set
Actual Time 6:54 AM CST 5:52 PM CST
Civil Twilight 6:29 AM CST 6:17 PM CST
Nautical Twilight 6:01 AM CST 6:46 PM CST
Astronomical Twilight 5:32 AM CST 7:14 PM CST
Moon 10:17 PM CST (2/11) 8:58 AM CST (2/11)
Length of Visible Light 11h 47m
Length of Day
10h 57m
Waning Gibbous, 82% of the Moon is Illuminated
Feb 11
Waning Gibbous
Feb 14
Last Quarter
Feb 21
New
Feb 29
First Quarter
Mar 8
Full

Hourly Weather History & Observations

Time (CST) Temp. Windchill Dew Point Humidity Pressure Visibility Wind Dir Wind Speed Gust Speed Precip Events Conditions
12:53 AM 46.0 °F 44.8 °F 43.0 °F 89% 30.23 in 10.0 mi Variable 3.5 mph - N/A   Overcast
1:29 AM 46.4 °F 42.9 °F 42.8 °F 87% 30.25 in 10.0 mi Variable 6.9 mph - N/A   Overcast
1:53 AM 46.0 °F 41.4 °F 41.0 °F 83% 30.25 in 10.0 mi North 9.2 mph 19.6 mph N/A   Overcast
2:14 AM 44.6 °F 40.7 °F 39.2 °F 81% 30.25 in 10.0 mi Variable 6.9 mph - N/A   Overcast
2:53 AM 45.0 °F 39.3 °F 39.0 °F 80% 30.26 in 10.0 mi North 11.5 mph 19.6 mph N/A   Overcast
3:53 AM 43.0 °F 37.7 °F 34.0 °F 71% 30.28 in 10.0 mi North 9.2 mph 18.4 mph 0.01 in   Overcast
4:53 AM 39.0 °F 34.0 °F 30.9 °F 73% 30.31 in 10.0 mi North 6.9 mph - N/A   Mostly Cloudy
5:20 AM 37.4 °F 32.8 °F 30.2 °F 75% 30.32 in 10.0 mi Variable 5.8 mph - N/A   Scattered Clouds
5:53 AM 37.0 °F 32.4 °F 28.9 °F 73% 30.32 in 10.0 mi Variable 5.8 mph - N/A   Clear
6:53 AM 36.0 °F 31.1 °F 27.0 °F 70% 30.34 in 10.0 mi Variable 5.8 mph 17.3 mph N/A   Clear
7:53 AM 36.0 °F 32.1 °F 27.0 °F 70% 30.39 in 10.0 mi North 4.6 mph - N/A   Clear
8:53 AM 37.9 °F 30.0 °F 26.1 °F 62% 30.42 in 10.0 mi North 12.7 mph 18.4 mph N/A   Clear
9:53 AM 39.9 °F 32.5 °F 24.1 °F 53% 30.45 in 10.0 mi North 12.7 mph 20.7 mph N/A   Clear
10:53 AM 42.1 °F 37.1 °F 19.9 °F 41% 30.44 in 10.0 mi NE 8.1 mph 21.9 mph N/A   Clear
11:53 AM 44.1 °F 38.6 °F 17.1 °F 34% 30.44 in 10.0 mi North 10.4 mph 19.6 mph N/A   Clear
12:53 PM 46.0 °F 42.5 °F 18.0 °F 33% 30.43 in 10.0 mi Variable 6.9 mph 23.0 mph N/A   Clear
1:53 PM 46.9 °F - 17.1 °F 30% 30.41 in 10.0 mi NNE 9.2 mph 17.3 mph N/A   Clear
2:53 PM 46.9 °F - 16.0 °F 29% 30.40 in 10.0 mi NE 11.5 mph 19.6 mph N/A   Clear
3:53 PM 46.0 °F 40.6 °F 12.9 °F 26% 30.42 in 10.0 mi NNE 11.5 mph 18.4 mph N/A   Clear
4:53 PM 44.1 °F 40.8 °F 18.0 °F 35% 30.44 in 10.0 mi Variable 5.8 mph - N/A   Clear
5:53 PM 39.9 °F 34.5 °F 17.1 °F 40% 30.46 in 10.0 mi NE 8.1 mph - N/A   Clear
6:53 PM 37.9 °F 32.7 °F 17.1 °F 43% 30.50 in 10.0 mi Variable 6.9 mph - N/A   Clear
7:53 PM 35.1 °F 29.3 °F 18.0 °F 50% 30.52 in 10.0 mi NNE 6.9 mph - N/A   Clear
8:53 PM 34.0 °F 28.0 °F 18.0 °F 52% 30.55 in 10.0 mi NNE 6.9 mph - N/A   Clear
9:53 PM 32.0 °F 25.6 °F 17.1 °F 54% 30.56 in 10.0 mi NNE 6.9 mph - N/A   Clear
10:53 PM 32.0 °F 26.4 °F 16.0 °F 52% 30.57 in 10.0 mi Variable 5.8 mph - N/A   Clear
11:53 PM 30.9 °F 26.2 °F 16.0 °F 54% 30.58 in 10.0 mi Variable 4.6 mph - N/A   Clear